www.pogodaiklimat.ru

Погода и климат >> Архив погоды >> Катар >> Doha


АРХИВ ПОГОДЫ в Doha

Время (UTC), дата Ветер
(напр.,м/с)
 
Видим.   Явления Облачность Т
(С)
Тd
(С)
f
(%)
Тe
(С)
Тes
(С)
Комфортность P
(гПа)
Po
(гПа)
Тmin
(С)
Tmax
(С)
R
(мм)
R24
(мм)
S
(см)
03 11.10 СВ 6 13 км н/о +31.7 +23.6 62 +43 +43 опасность
перегрева
1010.6 1009.3
06 11.10 СВ 9 14 км н/о +34.3 +21.4 47 +42 +42 опасность
перегрева
1011.6 1010.3 +30.3
09 11.10 В 11 9000 м н/о +35.6 +19.7 39 +41 +41 опасность
перегрева
1010.3 1009.0
12 11.10 СВ 7 15 км н/о +35.4 +19.4 39 +41 +41 опасность
перегрева
1009.2 1007.9
15 11.10 В 3 15 км н/о +33.6 +20.8 47 +41 +41 опасность
перегрева
1009.6 1008.3
18 11.10 С 4 16 км н/о +32.1 +22.3 56 +41 +41 опасность
перегрева
1010.8 1009.5 +36.2
21 11.10 С 5 18 км н/о +31.6 +19.9 50 +38 +38 очень
душно
1010.7 1009.4
00 12.10 С 5 16 км н/о +31.2 +22.3 59 +40 +40 очень
душно
1010.0 1008.7
03 12.10 СВ 4 17 км н/о +31.2 +22.7 61 +41 +41 опасность
перегрева
1011.3 1010.0
06 12.10 СВ 8 17 км н/о +34.2 +21.3 47 +42 +42 опасность
перегрева
1012.4 1011.1 +30.9
09 12.10 В 11 15 км н/о +35.7 +18.9 37 +40 +40 очень
душно
1011.2 1009.9
12 12.10 В 7 18 км н/о +35.1 +17.9 36 +39 +39 очень
душно
1010.3 1009.0
15 12.10 СВ 4 19 км н/о +33.3 +19.1 43 +38 +38 очень
душно
1010.7 1009.4
18 12.10 С 3 20 км н/о +32.3 +18.8 45 +37 +37 очень
душно
1011.8 1010.5 +36.6
21 12.10 СВ 1 18 км н/о +30.4 +20.5 55 +37 +37 очень
душно
1011.7 1010.4
00 13.10 С 3 17 км н/о +30.7 +21.2 57 +38 +38 очень
душно
1011.7 1010.4
03 13.10 СВ 3 20 км н/о +30.5 +19.9 53 +37 +37 очень
душно
1012.4 1011.1
06 13.10 СВ 8 18 км н/о +34.3 +20.6 45 +41 +41 опасность
перегрева
1013.9 1012.6 +29.5
09 13.10 В 10 14 км н/о +35.7 +16.0 31 +38 +38 очень
душно
1013.0 1011.7
12 13.10 СВ 10 20 км н/о +35.2 +15.6 31 +37 +37 очень
душно
1011.8 1010.5
15 13.10 СВ 4 18 км н/о +33.4 +14.8 33 +35 +35 душно 1012.3 1011.0
18 13.10 СВ 2 15 км н/о +31.3 +15.9 39 +34 +34 душно 1013.8 1012.5 +36.0
21 13.10 С 3 20 км н/о +30.9 +17.1 44 +35 +35 очень
душно
1013.2 1011.9
00 14.10 С 5 20 км н/о +30.8 +19.4 51 +37 +37 очень
душно
1012.7 1011.4
03 14.10 ЮВ 1 18 км н/о +30.0 +20.6 57 +37 +37 очень
душно
1013.4 1012.1
06 14.10 СВ 5 20 км н/о +34.2 +18.5 40 +39 +39 очень
душно
1015.1 1013.8 +27.9
09 14.10 СВ 4 12 км н/о +34.7 +19.3 40 +40 +40 очень
душно
1013.7 1012.4
12 14.10 В 7 16 км н/о +33.5 +21.2 49 +41 +41 опасность
перегрева
1012.2 1010.9
15 14.10 В 5 19 км н/о +31.6 +22.1 57 +40 +40 очень
душно
1012.5 1011.2
18 14.10 В 4 16 км н/о +30.6 +22.4 62 +40 +40 очень
душно
1013.8 1012.5 +35.1
21 14.10 С 4 17 км н/о +30.5 +22.2 61 +39 +39 очень
душно
1013.3 1012.0
00 15.10 В 2 10 км н/о +29.9 +21.7 61 +38 +38 очень
душно
1013.1 1011.8
03 15.10 Ю 1 11 км н/о +30.4 +21.0 57 +38 +38 очень
душно
1014.2 1012.9
06 15.10 Ю 7 17 км н/о +33.0 +16.3 37 +36 +36 очень
душно
1015.2 1013.9 +29.0
09 15.10 ЮВ 6 18 км н/о +35.9 +12.6 25 +36 +36 очень
жарко
1013.8 1012.5
12 15.10 Ю 6 18 км н/о +37.5 +6.5 15 +35 +35 очень
жарко
1012.1 1010.8
15 15.10 СЗ 3 <100 м н/о +31.7 +6.0 20 +35 +35 очень
душно
1013.9 1012.6
18 15.10 С 1 20 км н/о +31.0 +8.6 25 +30 +30 жарко 1014.2 1012.9 +37.9
21 15.10 Ю 4 20 км н/о +31.1 +11.8 31 +32 +32 жарко 1013.3 1012.0
00 16.10 Ю 4 13 км н/о +29.7 +18.4 51 +35 +35 очень
душно
1012.7 1011.4
03 16.10 ЮЗ 4 7000 м н/о +29.4 +17.7 49 +34 +34 очень
душно
1014.4 1013.1
06 16.10 З 3 6000 м н/о +33.4 +12.5 28 +34 +34 очень
жарко
1015.0 1013.7 +29.3
09 16.10 С 10 11 км н/о +35.5 +10.0 21 +34 +34 очень
жарко
1013.2 1011.9
12 16.10 С 9 11 км н/о +34.1 +17.9 38 +38 +38 очень
душно
1012.0 1010.7
15 16.10 С 8 9000 м н/о +32.7 +20.3 48 +39 +39 очень
душно
1012.7 1011.4
18 16.10 СЗ 5 9000 м н/о +31.4 +20.5 52 +38 +38 очень
душно
1013.5 1012.2 +35.9
21 16.10 СЗ 3 9000 м н/о +29.8 +20.2 56 +36 +36 очень
душно
1013.0 1011.7
00 17.10 СЗ 3 7000 м н/о +28.8 +20.8 62 +36 +36 очень
душно
1012.7 1011.4
03 17.10 ЮЗ 2 7000 м н/о +28.5 +20.5 62 +35 +35 очень
душно
1013.5 1012.2
06 17.10 В 3 9000 м н/о +31.9 +19.7 48 +38 +38 очень
душно
1014.6 1013.3 +28.1
09 17.10 В 9 11 км н/о +33.4 +17.6 39 +37 +37 очень
душно
1012.8 1011.5
15 17.10 СВ 5 10 км н/о +31.5 +18.9 47 +37 +37 очень
душно
1011.0 1009.7
21 17.10 С 4 8000 м н/о +30.3 +19.5 52 +36 +36 очень
душно
1012.1 1010.8

 

Местоположение метеостанции Doha (Катар): широта 25.25 долгота 51.57 высота над уровнем моря 10 м.

В архиве по умолчанию представлена погода в Doha за последнюю неделю. Архивные данные за месяц целиком и за предыдущие месяцы, начиная с января 2011 года, Вы можете получить, выбрав интересующий диапазон дат из раскрывающегося списка и нажав кнопку "Ввод!".


*Определитесь, кто Вы:
робот инопланетянин человек

Внимание! Время в таблицах - всемирное. Для получения местного времени необходимо прибавить поправку, которая в Doha равна 4 ч.

Смотрите также архив погоды в соседних городах и на ближайших метеорологических станциях:

Погода в Hamad Int Airport (Катар) (5 км)
Погода в Dukhan (Катар) (84 км)
Погода в Abu Samra (Катар) (94 км)
Погода в Bahrain (Бахрейн) (146 км)
Погода в Dhahran (Саудовская Аравия) (180 км)
Погода в Al Ahsa (Саудовская Аравия) (210 км)
Погода в King Fahd Int Airport (Саудовская Аравия) (220 км)
Погода в Kish Island (Иран) (278 км)
Погода в Bandar Deyr (Иран) (289 км)
Погода в Abu Dhabi Bateen Airport (ОАЭ) (306 км)

Пояснения к столбцам:

Ветер - указаны скорость ветра в м/с - средняя за 10 мин, порывы в срок и между сроками (в фигурных скобках) и направление, откуда дует ветер: С - северный, СВ - северо-восточный, В - восточный, ЮВ - юго-восточный, Ю - южный, ЮЗ - юго-западный, З - западный, СЗ - северо-западный.
Видимость - горизонтальная дальность видимости в метрах или километрах. При видимости от 1 до 10 км при отсутствии осадков обычно наблюдается дымка, при ухудшении видимости до 1 км и менее - туман. В сухую погоду видимость может ухудшаться дымом, пылью или мглою.
Явления - указаны атмосферные явления, наблюдавшиеся в срок или в последний час перед сроком; фигурными скобками обозначены явления, наблюдавшиеся между сроками (за 1-3 часа до срока); квадратными скобками обозначены град или гололедные отложения с указанием их диаметра в мм.
Облачность - указаны через наклонную черту общая и нижняя облачность в баллах и высота нижней границы облаков в метрах; квадратными скобками обозначены формы облаков: Ci - перистые, Cs - перисто-слоистые, Cc - перисто-кучевые, Ac - высококучевые, As - высокослоистые, Sc - слоисто-кучевые, Ns - слоисто-дождевые, Cu - кучевые, Cb - кучево-дождевые. Подробнее классификацию облаков см. в Атласе облаков (PDF).
T - Температура воздуха - температура, измеренная на высоте 2 м над землей.
Td - Температура точки росы - температура, при понижении до которой содержащийся в воздухе водяной пар достигнет насыщения.
f - Относительная влажность воздуха - влажноcть воздуха, измеренная на высоте 2 м над землей.
Te - Эффективная температура - температура, которую ощущает одетый по сезону человек в тени. Характеристика душности погоды. При расчете учитывается влияние влажности воздуха и скорости ветра на теплоощущения человека.
Tes - Эффективная температура на солнце - температура, которую ощущает человек, с поправкой на солнечный нагрев. Характеристика знойности погоды. Зависит от высоты солнца над горизонтом, облачности и скорости ветра. Ночью, в пасмурную погоду, а также при ветре 12 м/с и более поправка равна нулю.
P - Атмосферное давление - приведенное к уровню моря атмосферное давление.
Po - Атмосферное давление - измеренное на уровне метеостанции атмосферное давление.
Tmin - Минимальная температура - минимум температуры воздуха на высоте 2 м над землей.
Tmax - Максимальная температура - максимум температуры воздуха на высоте 2 м над землей.
R - Количество осадков - Количество выпавших осадков за период времени, мм. При наведении курсора мыши на число - период времени, за который выпало указанное количество осадков.
R24 - Количество осадков - Количество выпавших осадков за 24 часа, мм.
S - Снежный покров - Высота снежного покрова, см. При наведении курсора мыши на число - состояние снежного покрова и степень покрытия местности в баллах.